Stations météo

réclame
Mon MeteoGroup
Wick Airport (AWS), Grande-Bretagne (3075): Température de l'air & dewpoint: 10.08.2018 20:00:00 - 16.08.2018 20:00:00 (BST)Wick Airport (AWS), Grande-Bretagne (3075): Température de l'air -20cm: 10.08.2018 20:00:00 - 16.08.2018 20:00:00 (BST)Wick Airport (AWS), Grande-Bretagne (3075): Vitesse du vent & gusts: 10.08.2018 20:00:00 - 16.08.2018 20:00:00 (BST)Wick Airport (AWS), Grande-Bretagne (3075): Direction du vent: 10.08.2018 20:00:00 - 16.08.2018 20:00:00 (BST)Wick Airport (AWS), Grande-Bretagne (3075): reduced air pressure: 10.08.2018 20:00:00 - 16.08.2018 20:00:00 (BST)Wick Airport (AWS), Grande-Bretagne (3075): visibility: 10.08.2018 20:00:00 - 16.08.2018 20:00:00 (BST)Wick Airport (AWS), Grande-Bretagne (3075): Quantités de précipitations: 10.08.2018 20:00:00 - 16.08.2018 20:00:00 (BST)
Date & Time tt [°C] td [°C] tt -20cm [°C] ff [km/h] ff [knt] fx [km/h] fx [knt] dd ppp [hPa] vv [km] rr [mm]
16.08.2018 20:00:00 14,3 8,3 - 18 10 - - WSW 1002,9 50 0,0
16.08.2018 19:00:00 16,0 8,1 - 28 15 - - WSW 1002,4 30 0,0
16.08.2018 18:00:00 16,9 7,5 - 28 15 - - WSW 1001,8 30 0,0
16.08.2018 17:00:00 17,2 8,1 - 22 12 - - W 1001,7 45 0,0
16.08.2018 16:00:00 17,2 8,7 - 29 16 48 26 W 1001,3 45 0,0
16.08.2018 15:00:00 16,5 7,8 - 31 17 48 26 WSW 1001,1 50 0,0
16.08.2018 14:00:00 15,8 10,3 - 29 16 - - SSW 1000,8 45 0,0
16.08.2018 13:00:00 15,9 9,3 - 29 16 - - S 1000,7 35 0,0
16.08.2018 12:00:00 15,5 9,9 - 29 16 46 25 SSW 1000,6 27 0,0
16.08.2018 11:00:00 15,4 9,5 - 34 18 46 25 SW 1000,6 35 0,0
16.08.2018 10:00:00 14,8 9,7 14,7 28 15 - - SSW 1000,6 35 0,0
16.08.2018 09:00:00 13,2 9,8 - 24 13 - - SSW 1000,6 30 0,0
16.08.2018 08:00:00 13,1 9,5 - 15 8 - - SSW 1000,6 27 0,0
16.08.2018 07:00:00 11,4 9,0 - 2 1 - - SE 1000,7 24 0,0
16.08.2018 06:00:00 9,9 7,0 - 2 1 - - S 1000,4 23 0,0
16.08.2018 05:00:00 10,2 7,4 - 9 5 - - SSW 1000,7 21 0,0
16.08.2018 04:00:00 9,4 7,6 - 8 4 - - SW 1001,0 29 0,0
16.08.2018 03:00:00 8,7 6,7 - 2 1 - - WSW 1001,4 23 0,0
16.08.2018 02:00:00 10,3 7,2 - 11 6 - - SSW 1001,7 24 0,0
16.08.2018 01:00:00 9,8 6,9 - 5 3 - - WSW 1002,0 30 0,0
16.08.2018 00:00:00 11,5 7,1 - 16 9 - - SW 1001,7 26 0,0
15.08.2018 23:00:00 12,6 7,9 - 16 9 - - SW 1001,6 30 0,0
15.08.2018 22:00:00 14,2 10,3 - 26 14 - - SSW 1001,2 35 0,0
15.08.2018 21:00:00 14,8 10,3 - 29 16 46 25 SSW 1000,8 30 0,0
15.08.2018 20:00:00 14,9 10,7 - 28 15 48 26 S 1001,0 35 0,0
15.08.2018 19:00:00 15,4 11,5 - 18 10 - - SSW 1001,4 23 0,0
15.08.2018 18:00:00 14,2 10,5 - 18 10 - - S 1001,8 50 0,0
15.08.2018 17:00:00 14,4 12,0 - 15 8 - - SSW 1002,8 30 0,2
15.08.2018 16:00:00 15,4 12,0 - 24 13 - - SSW 1002,9 40 0,0
15.08.2018 15:00:00 15,2 14,1 - 16 9 - - SW 1003,2 28 0,8
15.08.2018 14:00:00 15,7 13,7 - 21 11 - - SSW 1003,2 22 0,0
15.08.2018 13:00:00 16,3 13,1 - 16 9 - - S 1003,1 45 0,0
15.08.2018 12:00:00 16,1 13,0 - 15 8 - - S 1003,6 29 0,0
15.08.2018 11:00:00 17,5 14,0 - 18 10 - - S 1003,7 40 0,0
15.08.2018 10:00:00 15,7 13,1 15,0 8 4 - - S 1004,0 29 0,0
15.08.2018 09:00:00 15,5 13,3 - 18 10 - - S 1004,3 40 0,0
15.08.2018 08:00:00 14,0 12,7 - 13 7 - - SSE 1004,2 45 0,0
15.08.2018 07:00:00 13,4 12,3 - 13 7 - - S 1004,5 40 0,0
15.08.2018 06:00:00 13,3 11,9 - 13 7 - - S 1004,7 27 0,0
15.08.2018 05:00:00 13,1 11,0 - 16 9 - - S 1005,6 16 0,0
15.08.2018 04:00:00 12,8 9,8 - 8 4 - - S 1006,1 50 0,0
15.08.2018 03:00:00 12,8 9,5 - 4 2 - - SW 1006,5 50 0,0
15.08.2018 02:00:00 13,1 9,8 - 13 7 - - WSW 1006,5 50 0,0
15.08.2018 01:00:00 12,9 9,9 - 5 3 - - ESE 1006,7 40 0,0
15.08.2018 00:00:00 13,5 10,5 - 5 3 - - SSW 1006,9 50 0,0
14.08.2018 23:00:00 14,2 11,5 - 16 9 - - SW 1007,0 50 0,0
14.08.2018 22:00:00 14,5 12,2 - 11 6 - - WSW 1006,7 45 0,0
14.08.2018 21:00:00 15,2 13,6 - 16 9 - - W 1006,6 50 0,0
14.08.2018 20:00:00 16,7 14,4 - 11 6 - - WSW 1006,1 30 0,0
14.08.2018 19:00:00 15,8 13,8 - 13 7 - - S 1005,8 40 0,0
14.08.2018 18:00:00 16,4 13,7 - 21 11 - - S 1005,9 27 0,0
14.08.2018 17:00:00 16,2 14,6 - 18 10 - - S 1006,2 35 0,2
14.08.2018 16:00:00 14,7 13,7 - 11 6 - - S 1006,7 9 0,4
14.08.2018 15:00:00 14,3 13,8 - 16 9 - - S 1007,1 12 1,0
14.08.2018 14:00:00 14,3 13,7 - 11 6 - - S 1007,4 7 2,4
14.08.2018 13:00:00 14,9 13,4 - 11 6 - - SSW 1007,3 10 0,8
14.08.2018 12:00:00 15,9 13,0 - 18 10 - - SSW 1007,6 35 0,0
14.08.2018 11:00:00 15,7 12,7 - 15 8 - - SSW 1007,5 40 0,0
14.08.2018 10:00:00 15,4 13,8 15,0 8 4 - - S 1007,5 45 0,0
14.08.2018 09:00:00 15,2 13,4 - 11 6 - - SSW 1007,3 40 0,0
14.08.2018 08:00:00 14,2 13,5 - 8 4 - - S 1007,6 30 0,0
14.08.2018 07:00:00 13,5 13,1 - 4 2 - - SW 1007,5 40 0,0
14.08.2018 06:00:00 13,2 13,2 - 8 4 - - SSW 1007,6 30 0,0
14.08.2018 05:00:00 13,0 13,0 - 8 4 - - S 1007,9 5 0,0
14.08.2018 04:00:00 13,0 12,9 - 5 3 - - SE 1007,8 0,3 0,0
14.08.2018 03:00:00 13,4 13,1 - 5 3 - - SSE 1008,2 3,3 0,2
14.08.2018 02:00:00 13,6 12,9 - 8 4 - - S 1008,7 2,7 0,0
14.08.2018 01:00:00 13,6 12,3 - 8 4 - - SE 1008,9 28 0,0
14.08.2018 00:00:00 13,5 12,2 - 9 5 - - SE 1008,7 26 0,0
13.08.2018 23:00:00 13,7 12,1 - 9 5 - - SE 1008,7 26 0,0
13.08.2018 22:00:00 13,8 12,0 - 9 5 - - SE 1009,0 45 0,0
13.08.2018 21:00:00 14,0 12,3 - 9 5 - - SE 1009,1 45 0,0
13.08.2018 20:00:00 14,0 12,5 - 9 5 - - ESE 1008,9 45 0,0
13.08.2018 19:00:00 14,1 11,4 - 8 4 - - ESE 1008,8 45 0,0
13.08.2018 18:00:00 14,6 10,6 - 13 7 - - SE 1008,9 35 0,0
13.08.2018 17:00:00 13,8 12,0 - 13 7 - - ESE 1009,2 28 0,0
13.08.2018 16:00:00 14,3 11,9 - 15 8 - - ESE 1009,4 40 0,0
13.08.2018 15:00:00 14,4 11,8 - 13 7 - - ESE 1009,5 35 0,0
13.08.2018 14:00:00 14,8 11,8 - 15 8 - - SE 1009,6 27 0,0
13.08.2018 13:00:00 15,0 11,5 - 16 9 - - ESE 1009,7 35 0,0
13.08.2018 12:00:00 15,2 12,2 - 16 9 - - SE 1009,6 30 0,0
13.08.2018 11:00:00 14,3 11,7 - 18 10 - - ESE 1009,6 23 0,0
13.08.2018 10:00:00 13,8 11,3 14,9 16 9 - - ESE 1009,7 29 0,0
13.08.2018 09:00:00 13,4 11,0 - 16 9 - - E 1009,5 30 0,0
13.08.2018 08:00:00 13,2 10,5 - 18 10 - - E 1009,4 30 0,0
13.08.2018 07:00:00 - - - - - - - - - - -
13.08.2018 06:00:00 12,6 11,2 - 16 9 - - E 1009,2 30 0,0
13.08.2018 05:00:00 - - - - - - - - - - -
13.08.2018 04:00:00 12,5 11,1 - 16 9 - - E 1009,6 30 0,0
13.08.2018 03:00:00 12,5 11,7 - 15 8 - - E 1009,8 17 0,0
13.08.2018 02:00:00 - - - - - - - - - - -
13.08.2018 01:00:00 12,5 11,4 - 21 11 - - E 1010,4 18 0,2
13.08.2018 00:00:00 12,5 11,4 - 18 10 - - E 1010,6 24 0,4
12.08.2018 23:00:00 12,6 10,9 - 21 11 - - E 1010,6 24 0,4
12.08.2018 22:00:00 12,7 11,3 - 21 11 - - E 1010,7 19 0,0
12.08.2018 21:00:00 12,9 11,5 - 18 10 - - E 1010,9 26 0,2
12.08.2018 20:00:00 13,1 11,4 - 18 10 - - E 1011,0 24 0,6
12.08.2018 19:00:00 13,4 11,6 - 18 10 - - E 1011,1 14 0,0
12.08.2018 18:00:00 14,1 11,3 - 22 12 - - E 1011,0 40 0,0
12.08.2018 17:00:00 14,9 11,6 - 22 12 - - E 1011,1 30 0,0
12.08.2018 16:00:00 15,1 11,6 - 22 12 - - E 1011,3 21 0,0
12.08.2018 15:00:00 15,3 11,1 - 28 15 - - E 1011,5 19 0,0
12.08.2018 14:00:00 14,4 10,8 - 22 12 - - E 1011,6 30 0,0
12.08.2018 13:00:00 14,1 10,7 - 21 11 - - E 1011,7 22 0,0
12.08.2018 12:00:00 14,7 11,1 - 24 13 - - E 1011,9 30 0,0
12.08.2018 11:00:00 14,0 10,8 - 24 13 - - E 1012,0 40 0,0
12.08.2018 10:00:00 14,0 10,9 - 26 14 - - E 1012,0 27 0,0
12.08.2018 09:00:00 13,1 10,6 - 24 13 - - E 1012,0 27 0,0
12.08.2018 08:00:00 12,9 10,9 - 24 13 - - E 1012,1 21 0,0
12.08.2018 07:00:00 12,5 11,0 - 24 13 - - E 1011,9 30 0,0
12.08.2018 06:00:00 12,3 11,0 - 22 12 - - E 1012,1 28 0,0
12.08.2018 05:00:00 12,3 11,1 - 22 12 - - E 1012,1 29 0,0
12.08.2018 04:00:00 12,3 11,0 - 22 12 - - ENE 1012,7 35 0,0
12.08.2018 03:00:00 12,1 10,8 - 21 11 - - E 1013,3 35 0,0
12.08.2018 02:00:00 12,0 10,8 - 18 10 - - E 1013,7 40 0,0
12.08.2018 01:00:00 11,7 10,6 - 16 9 - - E 1014,1 35 0,0
12.08.2018 00:00:00 11,1 10,0 - 13 7 - - E 1014,7 50 0,0
11.08.2018 23:00:00 11,2 9,5 - 15 8 - - E 1015,1 50 0,0
11.08.2018 22:00:00 11,1 9,5 - 11 6 - - E 1015,7 50 0,0
11.08.2018 21:00:00 12,6 10,1 - 8 4 - - E 1016,0 40 0,0
11.08.2018 20:00:00 13,1 10,3 - 8 4 - - ESE 1016,1 35 0,0
11.08.2018 19:00:00 13,3 9,7 - 8 4 - - ESE 1016,3 45 0,0
11.08.2018 18:00:00 14,2 8,0 - 4 2 - - E 1016,4 40 0,0
11.08.2018 17:00:00 13,8 8,1 - 5 3 - - SE 1016,7 50 0,0
11.08.2018 16:00:00 13,1 9,1 - 8 4 - - SSE 1017,0 35 0,0
11.08.2018 15:00:00 13,4 8,6 - 8 4 - - SSE 1017,1 40 0,0
11.08.2018 14:00:00 14,0 9,9 - 8 4 - - E 1017,1 40 0,0
11.08.2018 13:00:00 14,2 8,7 - 9 5 - - E 1017,1 30 0,0
11.08.2018 12:00:00 14,4 8,1 - 13 7 - - NW 1017,3 24 0,0
11.08.2018 11:00:00 14,4 7,9 - 18 10 - - WNW 1017,3 50 0,0
11.08.2018 10:00:00 14,5 8,5 15,0 16 9 - - W 1017,3 40 0,0
11.08.2018 09:00:00 14,1 8,6 - 18 10 - - W 1017,4 29 0,0
11.08.2018 08:00:00 11,7 9,8 - 8 4 - - SW 1017,2 35 0,0
11.08.2018 07:00:00 9,8 8,7 - 8 4 - - WSW 1017,3 40 0,0
11.08.2018 06:00:00 9,0 8,3 - 8 4 - - W 1016,9 50 0,0
11.08.2018 05:00:00 8,2 7,5 - 11 6 - - W 1016,9 50 0,0
11.08.2018 04:00:00 7,6 7,0 - 8 4 - - W 1016,8 45 0,0
11.08.2018 03:00:00 8,3 7,5 - 16 9 - - W 1017,2 45 0,0
11.08.2018 02:00:00 9,5 8,4 - 9 5 - - W 1017,0 45 0,0
11.08.2018 01:00:00 10,4 9,3 - 11 6 - - W 1017,0 50 0,0
11.08.2018 00:00:00 11,1 9,8 - 9 5 - - WSW 1017,0 50 0,0
10.08.2018 23:00:00 11,4 9,9 - - - - - - 1016,8 45 0,0
10.08.2018 22:00:00 11,1 9,4 - 5 3 - - WNW 1016,3 45 0,0
10.08.2018 21:00:00 12,0 9,6 - 9 5 - - WNW 1015,9 45 0,0
10.08.2018 20:00:00 12,9 9,6 - 11 6 - - NW 1015,4 40 0,0

tt = Température de l'air
td = dewpoint
tt -20cm = Température de l'air -20cm
ff = Vitesse du vent
fx = gusts
dd = Direction du vent
ppp = reduced air pressure
vv = visibility
rr = Quantités de précipitations

stations d'obs. à proximité